CW6726 Weather Reports


time (UTC)temp
F
wind
direction
speed
knots
gust
knots
rain 1hr
in
rain 24hr
in
rain mn
in
humidity
%
barometer
mb
20260507112605 59 194 0.0 2.6 0.00 0.00 0.00 61 1013.0
20260507112105 59 194 0.0 0.0 0.00 0.00 0.00 60 1013.0
20260507111105 59 194 0.0 0.0 0.00 0.00 0.00 60 1013.0
20260507110605 59 194 0.0 0.0 0.00 0.00 0.00 61 1013.1
20260507110106 59 194 0.0 2.6 0.00 0.00 0.00 59 1013.1
20260507105105 61 194 0.0 0.9 0.00 0.00 0.00 53 1013.1
20260507104606 61 194 0.9 2.6 0.00 0.00 0.00 52 1013.1
20260507104104 62 194 0.0 1.7 0.00 0.00 0.00 54 1013.1
20260507103605 63 192 0.0 5.2 0.00 0.00 0.00 54 1013.1
20260507102605 63 182 0.9 2.6 0.00 0.00 0.00 53 1013.2
20260507101605 61 181 0.0 4.3 0.00 0.00 0.00 58 1013.2
20260507095604 60 46 0.0 1.7 0.00 0.00 0.00 63 1013.2
20260507095105 59 47 0.0 4.3 0.00 0.00 0.00 64 1013.2
20260507094604 58 157 0.0 0.0 0.00 0.00 0.00 68 1013.2
20260507094106 58 157 0.0 0.9 0.00 0.00 0.00 65 1013.2
20260507091105 56 202 1.7 5.2 0.00 0.00 0.00 70 1013.3
20260507090105 56 273 0.9 2.6 0.00 0.00 0.00 72 1013.4
20260507084605 55 19 0.0 2.6 0.00 0.00 0.00 76 1013.3
20260507083605 54 19 0.0 0.9 0.00 0.00 0.00 79 1013.3
20260507083105 54 19 0.0 2.6 0.00 0.00 0.00 80 1013.2
20260507082105 53 22 0.9 4.3 0.00 0.00 0.00 85 1013.1
20260507081605 52 22 0.0 2.6 0.00 0.00 0.00 86 1013.2
20260507080605 51 28 0.9 4.3 0.00 0.00 0.00 88 1013.2
20260507080105 50 28 0.0 2.6 0.00 0.00 0.00 89 1013.2
20260507075605 50 28 1.7 2.6 0.00 0.00 0.00 89 1013.2
20260507075104 49 32 0.0 2.6 0.00 0.00 0.00 90 1013.2
20260507074105 48 32 0.9 2.6 0.00 0.00 0.00 90 1013.2
20260507073605 47 32 0.9 2.6 0.00 0.00 0.00 90 1013.2
20260507073105 47 32 0.9 2.6 0.00 0.00 0.00 91 1013.2
20260507072605 47 32 0.9 2.6 0.00 0.00 0.00 91 1013.2
20260507072104 47 32 0.0 2.6 0.00 0.00 0.00 91 1013.2
20260507071104 46 32 0.0 2.6 0.00 0.00 0.00 92 1013.2
20260507070605 45 32 0.9 2.6 0.00 0.00 0.00 92 1013.2
20260507070105 45 32 0.0 0.9 0.00 0.00 0.00 92 1013.1
20260507065104 44 32 0.0 0.0 0.00 0.00 0.00 92 1013.2
20260507061104 39 32 0.0 0.0 0.00 0.00 0.00 92 1013.1
20260507060105 38 32 0.0 0.0 0.00 0.00 0.00 91 1012.9
20260507055105 38 32 0.0 0.0 0.00 0.00 0.00 91 1012.9
20260507054604 38 32 0.0 0.0 0.00 0.00 0.00 91 1013.0
20260507053105 37 32 0.0 0.0 0.00 0.00 0.00 91 1012.9
20260507052604 37 32 0.0 0.0 0.00 0.00 0.00 91 1012.8
20260507052105 37 32 0.0 0.0 0.00 0.00 0.00 91 1012.8
20260507051604 37 32 0.0 0.0 0.00 0.00 0.00 91 1012.8
20260507050105 37 32 0.0 0.0 0.00 0.00 0.00 91 1012.7
20260507045605 37 32 0.0 0.0 0.00 0.00 0.00 91 1012.7
20260507044605 37 32 0.0 0.0 0.00 0.00 0.00 91 1012.7
20260507042105 37 32 0.0 0.0 0.00 0.00 0.00 90 1012.7
20260507040107 37 32 0.0 0.0 0.00 0.00 0.00 90 1012.7
20260507035605 37 32 0.0 0.0 0.00 0.00 0.00 90 1012.7
20260507035105 37 32 0.0 0.0 0.00 0.00 0.00 90 1012.7
20260507034605 37 32 0.0 0.0 0.00 0.00 0.00 90 1012.7
20260507032605 36 32 0.0 0.0 0.00 0.00 0.00 90 1012.7
20260507031604 36 32 0.0 0.0 0.00 0.00 0.00 90 1012.7
20260507031105 36 32 0.0 0.0 0.00 0.00 0.00 90 1012.7
20260507025105 36 32 0.0 0.0 0.00 0.00 0.00 89 1012.7
20260507022605 36 32 0.0 0.0 0.00 0.00 0.00 89 1012.6
20260507022105 36 32 0.0 0.0 0.00 0.00 0.00 89 1012.6
20260507014604 36 32 0.0 0.0 0.00 0.00 0.00 89 1012.4
20260507013104 36 32 0.0 0.0 0.00 0.00 0.00 89 1012.4
20260507011605 37 32 0.0 0.0 0.00 0.00 0.00 88 1012.5
20260507010105 37 32 0.0 0.0 0.00 0.00 0.00 88 1012.5
20260507005105 37 32 0.0 0.0 0.00 0.00 0.00 88 1012.5
20260507004605 37 32 0.0 0.0 0.00 0.00 0.00 88 1012.5
20260507002104 38 32 0.0 0.0 0.00 0.00 0.00 88 1012.6
20260507001105 38 32 0.0 0.0 0.00 0.00 0.00 87 1012.6
20260507000105 38 32 0.0 0.0 0.00 0.00 0.00 87 1012.6
20260506233105 39 32 0.0 0.0 0.00 0.00 0.00 87 1012.3
20260506232605 39 32 0.0 0.0 0.00 0.00 0.00 87 1012.3
20260506232104 39 32 0.0 0.0 0.00 0.00 0.00 86 1012.2
20260506230605 39 32 0.0 0.0 0.00 0.00 0.00 86 1012.2
20260506225104 40 32 0.0 0.0 0.00 0.00 0.00 86 1012.2
20260506224605 40 32 0.0 0.0 0.00 0.00 0.00 86 1012.2
20260506224105 40 32 0.0 0.0 0.00 0.00 0.00 85 1012.2
20260506223105 41 32 0.0 0.0 0.00 0.00 0.00 85 1012.2
20260506222605 41 32 0.0 0.0 0.00 0.00 0.00 85 1012.2
20260506222105 41 32 0.0 0.0 0.00 0.00 0.00 84 1012.2
20260506221604 41 32 0.0 1.7 0.00 0.00 0.00 84 1012.2
20260506215605 42 32 0.0 0.0 0.00 0.00 0.00 83 1012.1
20260506213105 44 32 0.0 0.0 0.00 0.00 0.00 82 1011.9
20260506211105 46 32 0.0 0.0 0.00 0.00 0.00 80 1012.0
20260506210605 46 32 0.0 0.0 0.00 0.00 0.00 80 1011.9
20260506210105 46 32 0.0 0.0 0.00 0.00 0.00 79 1011.9
20260506205604 47 32 0.0 0.0 0.00 0.00 0.00 79 1011.8
20260506205106 47 32 0.0 0.0 0.00 0.00 0.00 78 1011.8
20260506204605 48 32 0.0 0.9 0.00 0.00 0.00 77 1011.7
20260506203105 49 32 0.0 0.0 0.00 0.00 0.00 75 1011.6
20260506202605 50 32 0.0 0.0 0.00 0.00 0.00 74 1011.6
20260506202104 51 32 0.0 0.9 0.00 0.00 0.00 73 1011.5
20260506195604 52 32 0.9 2.6 0.00 0.00 0.00 70 1011.4
20260506195105 52 32 1.7 2.6 0.00 0.00 0.00 70 1011.3
20260506193605 53 32 0.0 0.9 0.00 0.00 0.00 68 1011.1
20260506192606 54 32 0.0 0.9 0.00 0.00 0.00 66 1011.0
20260506191605 55 32 0.0 2.6 0.00 0.00 0.00 64 1010.9
20260506191104 55 30 2.6 6.1 0.00 0.00 0.00 63 1010.9
20260506185605 56 36 2.6 4.3 0.00 0.00 0.00 61 1010.7
20260506183105 56 15 0.9 7.8 0.00 0.00 0.00 58 1010.6
20260506182105 57 13 2.6 5.2 0.00 0.00 0.00 57 1010.5
20260506181605 57 11 1.7 4.3 0.00 0.00 0.00 57 1010.5
20260506180105 57 13 0.9 6.1 0.00 0.00 0.00 57 1010.3
20260506175105 58 13 5.2 7.8 0.00 0.00 0.00 55 1010.2
20260506173605 58 19 4.3 8.7 0.00 0.00 0.00 57 1010.1
20260506173105 58 24 4.3 10.4 0.00 0.00 0.00 57 1010.1
20260506172605 58 11 4.3 10.4 0.00 0.00 0.00 55 1010.1
20260506172106 58 8 4.3 6.1 0.00 0.00 0.00 55 1010.1
20260506171605 58 11 4.3 7.0 0.00 0.00 0.00 53 1010.0
20260506170105 58 352 4.3 10.4 0.00 0.00 0.00 54 1010.0
20260506164606 58 12 2.6 7.0 0.00 0.00 0.00 51 1010.0
20260506164105 59 51 4.3 7.8 0.00 0.00 0.00 51 1010.0
20260506160605 59 14 4.3 10.4 0.00 0.00 0.00 51 1010.0
20260506160105 59 21 6.1 8.7 0.00 0.00 0.00 52 1010.0
20260506155104 59 52 0.9 6.1 0.00 0.00 0.00 51 1010.0
20260506154604 59 18 3.5 7.8 0.00 0.00 0.00 51 1010.0
20260506154104 59 17 5.2 10.4 0.00 0.00 0.00 50 1010.1
20260506153105 59 340 3.5 7.8 0.00 0.00 0.00 52 1010.0
20260506152106 59 350 3.5 7.8 0.00 0.00 0.00 50 1010.0
20260506151605 59 349 2.6 7.0 0.00 0.00 0.00 50 1010.0
20260506151105 59 351 4.3 7.8 0.00 0.00 0.00 50 1010.1
20260506150605 59 13 4.3 10.4 0.00 0.00 0.00 50 1010.1
20260506145105 59 323 5.2 10.4 0.00 0.00 0.00 49 1010.2
20260506144605 60 9 5.2 8.7 0.00 0.00 0.00 50 1010.2
20260506143105 60 3 6.1 10.4 0.00 0.00 0.00 50 1010.2
20260506142605 61 20 4.3 13.0 0.00 0.00 0.00 50 1010.2
20260506142105 61 320 1.7 7.8 0.00 0.00 0.00 51 1010.1
20260506141104 59 300 4.3 7.8 0.00 0.00 0.00 52 1010.2
20260506135104 59 13 5.2 8.7 0.00 0.00 0.00 51 1010.4
20260506133105 60 38 4.3 10.4 0.00 0.00 0.00 51 1010.3
20260506132105 60 352 7.0 12.2 0.00 0.00 0.00 52 1010.2
20260506123604 60 344 5.2 10.4 0.00 0.00 0.00 53 1010.5
20260506123106 60 356 6.1 11.3 0.00 0.00 0.00 52 1010.5
20260506122105 59 7 6.1 10.4 0.00 0.00 0.00 52 1010.5
20260506121605 58 35 5.2 12.2 0.00 0.00 0.00 53 1010.5
20260506120105 58 14 4.3 10.4 0.00 0.00 0.00 54 1010.6
20260506115104 59 25 2.6 10.4 0.00 0.00 0.00 53 1010.6
20260506114605 58 337 6.1 10.4 0.00 0.00 0.00 53 1010.7
20260506114104 59 13 5.2 13.0 0.00 0.00 0.00 51 1010.7